No particular awareness of the weather is required.    There are no Weather-warnings


Meteo18 Weather Cam more information Meteo18 Weather Cam


Thunder radar more information blitzortung!


Rain radar more information rain snow radar


Visit our other weather sites:

Template documentation
and downloads

And another site



Weather Underground History page Text

Daily Summary for August 6, 2017 Units:  English    Metric   Both
« Previous Day
Next Day »
Daily Weekly Monthly Yearly Custom
  High: Low: Average:
Temperature: TemperatureC °F 14.7 °F 18.7 °F
Dew Point: DewpointC °F 8.0 °F 9.7 °F
Humidity: Humidity % 37 % 57 %
Wind Speed: WindSpeedKMH mph 0.0 mph 5.1 mph
Wind Gust: WindSpeedGustKMH mph - -
Wind:- - South
Pressure: PressurehPa in 1022.2 in -
Precipitation: 0.0 in    
Historical Graphs
 
 
Tabular Data for August 6, 2017
Time Temperature Dew Point Pressure Wind Wind Speed Wind Gust Humidity Rainfall Rate (Hourly)
TemperatureC °F DewpointC °F PressurehPa in Calm     Humidity % HourlyPrecipMM in
00:02 17.3 °F 10.7 °F 1022.6 in NW 3.2 mph 11.3 mph 65 % 0.0 in
00:12 17.2 °F 10.6 °F 1022.6 in NW 6.4 mph 9.7 mph 65 % 0.0 in
00:17 17.1 °F 10.5 °F 1022.6 in NW 3.2 mph 9.7 mph 65 % 0.0 in
00:27 17.0 °F 10.4 °F 1022.6 in NW 4.8 mph 9.7 mph 65 % 0.0 in
00:32 16.9 °F 10.3 °F 1022.6 in NW 3.2 mph 9.7 mph 65 % 0.0 in
00:42 16.8 °F 10.2 °F 1022.6 in West 4.8 mph 9.7 mph 65 % 0.0 in
00:47 16.8 °F 10.2 °F 1022.6 in NNW 4.8 mph 11.3 mph 65 % 0.0 in
00:52 16.8 °F 10.2 °F 1022.9 in NW 4.8 mph 11.3 mph 65 % 0.0 in
00:57 16.8 °F 10.2 °F 1022.9 in North 3.2 mph 11.3 mph 65 % 0.0 in
01:02 16.7 °F 10.3 °F 1022.6 in Calm   9.7 mph 66 % 0.0 in
01:07 16.7 °F 10.3 °F 1022.9 in NW 1.6 mph 8.0 mph 66 % 0.0 in
01:12 16.6 °F 10.2 °F 1022.9 in NNW 1.6 mph 6.4 mph 66 % 0.0 in
01:17 16.6 °F 10.4 °F 1022.9 in NW 1.6 mph 9.7 mph 67 % 0.0 in
01:22 16.6 °F 10.4 °F 1022.9 in WNW 4.8 mph 9.7 mph 67 % 0.0 in
01:27 16.5 °F 10.6 °F 1022.9 in NNW 6.4 mph 9.7 mph 68 % 0.0 in
01:32 16.4 °F 10.7 °F 1022.9 in North 1.6 mph 11.3 mph 69 % 0.0 in
01:37 16.3 °F 10.6 °F 1022.9 in West 3.2 mph 11.3 mph 69 % 0.0 in
01:42 16.3 °F 10.6 °F 1022.9 in NW 1.6 mph 11.3 mph 69 % 0.0 in
01:47 16.2 °F 10.7 °F 1022.9 in WNW 1.6 mph 11.3 mph 70 % 0.0 in
01:52 16.1 °F 10.6 °F 1022.9 in NW 3.2 mph 8.0 mph 70 % 0.0 in
01:57 16.1 °F 10.6 °F 1022.9 in NNW 4.8 mph 4.8 mph 70 % 0.0 in
02:02 16.1 °F 10.6 °F 1022.9 in NW 4.8 mph 11.3 mph 70 % 0.0 in
02:07 16.0 °F 10.7 °F 1022.9 in West 8.0 mph 11.3 mph 71 % 0.0 in
02:12 16.0 °F 10.7 °F 1022.9 in NW 4.8 mph 11.3 mph 71 % 0.0 in
02:17 15.9 °F 10.4 °F 1022.9 in North 4.8 mph 9.7 mph 70 % 0.0 in
02:22 15.9 °F 10.4 °F 1023.2 in NNW 3.2 mph 9.7 mph 70 % 0.0 in
02:32 15.8 °F 10.3 °F 1023.2 in NNW 3.2 mph 9.7 mph 70 % 0.0 in
02:37 15.7 °F 10.5 °F 1023.2 in North 3.2 mph 8.0 mph 71 % 0.0 in
02:42 15.6 °F 10.4 °F 1023.2 in NNW 3.2 mph 8.0 mph 71 % 0.0 in
02:47 15.5 °F 10.5 °F 1023.2 in NNW 1.6 mph 6.4 mph 72 % 0.0 in
02:52 15.4 °F 10.4 °F 1023.2 in NNW 3.2 mph 6.4 mph 72 % 0.0 in
02:57 15.4 °F 10.4 °F 1023.2 in North 1.6 mph 6.4 mph 72 % 0.0 in
03:02 15.3 °F 10.3 °F 1023.2 in NNW 6.4 mph 6.4 mph 72 % 0.0 in
03:07 15.4 °F 10.4 °F 1023.2 in NNW 3.2 mph 9.7 mph 72 % 0.0 in
03:12 15.3 °F 10.5 °F 1023.2 in North 1.6 mph 9.7 mph 73 % 0.0 in
03:17 15.3 °F 10.5 °F 1023.2 in NW 1.6 mph 9.7 mph 73 % 0.0 in
03:22 15.3 °F 10.5 °F 1023.2 in NE 3.2 mph 9.7 mph 73 % 0.0 in
03:27 15.4 °F 10.6 °F 1023.6 in NNW 8.0 mph 9.7 mph 73 % 0.0 in
03:32 15.4 °F 10.4 °F 1023.6 in NNE 8.0 mph 9.7 mph 72 % 0.0 in
03:37 15.4 °F 10.4 °F 1023.6 in North 3.2 mph 9.7 mph 72 % 0.0 in
03:42 15.4 °F 10.4 °F 1023.6 in Calm   11.3 mph 72 % 0.0 in
03:47 15.4 °F 10.4 °F 1023.6 in North 3.2 mph 11.3 mph 72 % 0.0 in
03:52 15.3 °F 10.5 °F 1023.6 in NNE 1.6 mph 11.3 mph 73 % 0.0 in
03:57 15.2 °F 10.4 °F 1023.6 in North 1.6 mph 8.0 mph 73 % 0.0 in
04:02 15.2 °F 10.4 °F 1023.6 in NNE 4.8 mph 9.7 mph 73 % 0.0 in
04:07 15.2 °F 10.4 °F 1023.6 in NE 3.2 mph 9.7 mph 73 % 0.0 in
04:12 15.1 °F 10.3 °F 1023.6 in North 3.2 mph 9.7 mph 73 % 0.0 in
04:17 15.0 °F 10.2 °F 1023.6 in NNW 4.8 mph 9.7 mph 73 % 0.0 in
04:22 15.1 °F 10.1 °F 1023.6 in NNW 8.0 mph 14.5 mph 72 % 0.0 in
04:27 15.1 °F 10.1 °F 1023.6 in NNE 8.0 mph 14.5 mph 72 % 0.0 in
04:32 15.0 °F 10.0 °F 1023.6 in North 6.4 mph 14.5 mph 72 % 0.0 in
04:37 14.9 °F 10.1 °F 1023.6 in North 8.0 mph 12.9 mph 73 % 0.0 in
04:42 14.9 °F 10.1 °F 1023.6 in NNW 3.2 mph 11.3 mph 73 % 0.0 in
04:47 14.9 °F 9.9 °F 1023.6 in NW 3.2 mph 12.9 mph 72 % 0.0 in
04:52 14.8 °F 10.0 °F 1023.6 in NNW 4.8 mph 12.9 mph 73 % 0.0 in
04:57 14.8 °F 10.0 °F 1023.6 in North 4.8 mph 12.9 mph 73 % 0.0 in
05:02 14.8 °F 10.0 °F 1023.6 in NNE 3.2 mph 14.5 mph 73 % 0.0 in
05:07 14.8 °F 10.0 °F 1023.6 in NNW 8.0 mph 14.5 mph 73 % 0.0 in
05:12 14.8 °F 10.0 °F 1023.6 in NNW 4.8 mph 14.5 mph 73 % 0.0 in
05:17 14.8 °F 9.8 °F 1023.6 in NNW 9.7 mph 14.5 mph 72 % 0.0 in
05:22 14.9 °F 9.9 °F 1023.6 in NW 6.4 mph 14.5 mph 72 % 0.0 in
05:32 14.8 °F 9.8 °F 1023.6 in North 8.0 mph 14.5 mph 72 % 0.0 in
05:37 14.8 °F 9.8 °F 1023.9 in NW 4.8 mph 14.5 mph 72 % 0.0 in
05:42 14.8 °F 9.8 °F 1023.9 in NNW 6.4 mph 12.9 mph 72 % 0.0 in
05:47 14.8 °F 9.8 °F 1023.9 in ENE 8.0 mph 14.5 mph 72 % 0.0 in
05:52 14.8 °F 9.8 °F 1023.9 in NNW 4.8 mph 14.5 mph 72 % 0.0 in
05:57 14.8 °F 9.8 °F 1023.9 in North 4.8 mph 14.5 mph 72 % 0.0 in
06:02 14.8 °F 9.8 °F 1023.9 in NNE 8.0 mph 11.3 mph 72 % 0.0 in
06:07 14.8 °F 9.8 °F 1023.9 in North 12.9 mph 12.9 mph 72 % 0.0 in
06:12 14.9 °F 9.7 °F 1023.9 in NNE 8.0 mph 14.5 mph 71 % 0.0 in
06:17 14.8 °F 9.8 °F 1023.9 in North 4.8 mph 14.5 mph 72 % 0.0 in
06:22 14.8 °F 9.8 °F 1023.9 in North 3.2 mph 14.5 mph 72 % 0.0 in
06:32 14.8 °F 9.8 °F 1023.9 in North 9.7 mph 11.3 mph 72 % 0.0 in
06:37 14.8 °F 9.8 °F 1023.9 in NNW 6.4 mph 12.9 mph 72 % 0.0 in
06:42 14.8 °F 9.6 °F 1023.9 in NNE 4.8 mph 12.9 mph 71 % 0.0 in
06:47 14.8 °F 9.8 °F 1023.9 in NNW 3.2 mph 12.9 mph 72 % 0.0 in
06:52 14.8 °F 9.8 °F 1023.9 in NNW 9.7 mph 12.9 mph 72 % 0.0 in
06:57 14.7 °F 9.7 °F 1023.9 in NNE 4.8 mph 14.5 mph 72 % 0.0 in
07:02 14.7 °F 9.7 °F 1024.3 in NE 11.3 mph 14.5 mph 72 % 0.0 in
07:07 14.7 °F 9.7 °F 1023.9 in NE 3.2 mph 14.5 mph 72 % 0.0 in
07:12 14.7 °F 9.7 °F 1024.3 in NNE 6.4 mph 14.5 mph 72 % 0.0 in
07:17 14.7 °F 9.7 °F 1023.9 in NE 6.4 mph 12.9 mph 72 % 0.0 in
07:22 14.8 °F 9.8 °F 1024.3 in North 6.4 mph 12.9 mph 72 % 0.0 in
07:27 14.8 °F 9.8 °F 1024.3 in NE 6.4 mph 14.5 mph 72 % 0.0 in
07:32 14.8 °F 10.0 °F 1024.3 in North 6.4 mph 14.5 mph 73 % 0.0 in
07:37 14.9 °F 9.9 °F 1024.3 in North 12.9 mph 14.5 mph 72 % 0.0 in
07:42 15.1 °F 10.1 °F 1024.3 in NE 9.7 mph 14.5 mph 72 % 0.0 in
07:47 15.1 °F 10.1 °F 1024.3 in North 11.3 mph 19.3 mph 72 % 0.0 in
07:52 15.4 °F 10.2 °F 1024.3 in NE 11.3 mph 19.3 mph 71 % 0.0 in
07:57 15.5 °F 10.3 °F 1024.3 in NNW 6.4 mph 19.3 mph 71 % 0.0 in
08:02 15.6 °F 10.1 °F 1024.3 in North 9.7 mph 19.3 mph 70 % 0.0 in
08:12 15.5 °F 10.3 °F 1024.6 in NNW 6.4 mph 19.3 mph 71 % 0.0 in
08:17 15.6 °F 10.4 °F 1024.6 in NE 11.3 mph 17.7 mph 71 % 0.0 in
08:22 15.9 °F 10.6 °F 1024.6 in North 6.4 mph 17.7 mph 71 % 0.0 in
08:27 16.1 °F 10.6 °F 1024.9 in NE 4.8 mph 20.9 mph 70 % 0.0 in
08:32 15.9 °F 10.4 °F 1024.9 in NNE 9.7 mph 20.9 mph 70 % 0.0 in
08:37 15.8 °F 10.6 °F 1024.9 in North 6.4 mph 20.9 mph 71 % 0.0 in
08:42 15.9 °F 10.6 °F 1024.9 in NE 6.4 mph 14.5 mph 71 % 0.0 in
08:47 16.0 °F 10.7 °F 1024.9 in NNE 3.2 mph 16.1 mph 71 % 0.0 in
08:52 16.2 °F 10.9 °F 1024.9 in NE 6.4 mph 16.1 mph 71 % 0.0 in
08:57 16.3 °F 11.0 °F 1025.3 in NNW 4.8 mph 16.1 mph 71 % 0.0 in
09:02 16.6 °F 11.1 °F 1025.3 in NE 8.0 mph 16.1 mph 70 % 0.0 in
09:07 16.8 °F 11.1 °F 1025.3 in North 9.7 mph 16.1 mph 69 % 0.0 in
09:12 16.9 °F 11.2 °F 1025.3 in NE 9.7 mph 22.5 mph 69 % 0.0 in
09:17 16.9 °F 11.0 °F 1025.3 in NW 9.7 mph 22.5 mph 68 % 0.0 in
09:22 17.2 °F 11.2 °F 1025.3 in NNE 16.1 mph 22.5 mph 68 % 0.0 in
09:32 17.3 °F 11.1 °F 1025.3 in NNE 6.4 mph 19.3 mph 67 % 0.0 in
09:37 17.4 °F 11.2 °F 1025.3 in NE 4.8 mph 19.3 mph 67 % 0.0 in
09:42 17.5 °F 11.3 °F 1025.3 in NNE 17.7 mph 19.3 mph 67 % 0.0 in
09:47 17.4 °F 11.0 °F 1025.3 in North 9.7 mph 19.3 mph 66 % 0.0 in
09:52 17.5 °F 11.1 °F 1025.3 in NNE 11.3 mph 20.9 mph 66 % 0.0 in
09:57 17.7 °F 11.3 °F 1025.3 in NNE 6.4 mph 20.9 mph 66 % 0.0 in
10:02 17.9 °F 11.0 °F 1025.3 in NE 14.5 mph 19.3 mph 64 % 0.0 in
10:12 17.9 °F 11.2 °F 1025.3 in NE 4.8 mph 20.9 mph 65 % 0.0 in
10:17 17.9 °F 11.2 °F 1025.3 in ENE 4.8 mph 20.9 mph 65 % 0.0 in
10:22 17.9 °F 11.0 °F 1025.3 in ENE 11.3 mph 19.3 mph 64 % 0.0 in
10:32 18.3 °F 11.1 °F 1025.3 in ENE 6.4 mph 17.7 mph 63 % 0.0 in
10:37 18.3 °F 11.1 °F 1025.3 in East 6.4 mph 17.7 mph 63 % 0.0 in
10:42 18.4 °F 11.0 °F 1025.3 in NNW 11.3 mph 17.7 mph 62 % 0.0 in
10:47 18.4 °F 11.0 °F 1025.3 in NNW 9.7 mph 17.7 mph 62 % 0.0 in
10:52 18.8 °F 11.1 °F 1025.3 in NE 8.0 mph 17.7 mph 61 % 0.0 in
10:57 18.8 °F 11.4 °F 1025.3 in NNW 6.4 mph 16.1 mph 62 % 0.0 in
11:02 18.9 °F 11.5 °F 1025.3 in NNE 4.8 mph 16.1 mph 62 % 0.0 in
11:07 19.2 °F 12.0 °F 1025.3 in North 9.7 mph 16.1 mph 63 % 0.0 in
11:12 19.2 °F 11.7 °F 1025.3 in Calm   17.7 mph 62 % 0.0 in
11:22 19.2 °F 11.5 °F 1025.3 in North 4.8 mph 17.7 mph 61 % 0.0 in
11:27 19.4 °F 11.4 °F 1025.3 in NE 3.2 mph 14.5 mph 60 % 0.0 in
11:32 19.6 °F 11.4 °F 1025.3 in North 4.8 mph 14.5 mph 59 % 0.0 in
11:37 19.9 °F 11.1 °F 1025.3 in NE 6.4 mph 14.5 mph 57 % 0.0 in
11:42 20.1 °F 10.5 °F 1025.3 in NNW 9.7 mph 22.5 mph 54 % 0.0 in
11:52 19.9 °F 10.6 °F 1025.3 in NNW 12.9 mph 22.5 mph 55 % 0.0 in
11:57 20.0 °F 10.7 °F 1025.3 in West 4.8 mph 16.1 mph 55 % 0.0 in
12:02 20.3 °F 10.4 °F 1025.3 in North 8.0 mph 16.1 mph 53 % 0.0 in
12:07 20.2 °F 10.6 °F 1024.9 in NE 6.4 mph 16.1 mph 54 % 0.0 in
12:12 20.3 °F 10.4 °F 1025.3 in North 6.4 mph 16.1 mph 53 % 0.0 in
12:17 20.5 °F 10.9 °F 1025.3 in WNW 6.4 mph 17.7 mph 54 % 0.0 in
12:22 20.6 °F 10.7 °F 1025.3 in NNE 8.0 mph 17.7 mph 53 % 0.0 in
12:27 20.4 °F 10.5 °F 1024.9 in NNE 6.4 mph 16.1 mph 53 % 0.0 in
12:32 20.5 °F 10.3 °F 1024.9 in WSW 1.6 mph 16.1 mph 52 % 0.0 in
12:37 20.8 °F 10.3 °F 1024.9 in NW 8.0 mph 16.1 mph 51 % 0.0 in
12:42 20.9 °F 10.7 °F 1024.9 in Calm   24.1 mph 52 % 0.0 in
12:47 20.9 °F 10.1 °F 1024.9 in ENE 14.5 mph 24.1 mph 50 % 0.0 in
12:52 21.0 °F 10.2 °F 1024.9 in North 11.3 mph 24.1 mph 50 % 0.0 in
12:57 21.3 °F 10.5 °F 1024.9 in NNW 3.2 mph 20.9 mph 50 % 0.0 in
13:02 21.4 °F 10.5 °F 1024.9 in North 8.0 mph 17.7 mph 50 % 0.0 in
13:07 21.1 °F 10.3 °F 1024.9 in NNE 12.9 mph 22.5 mph 50 % 0.0 in
13:12 20.9 °F 9.5 °F 1024.9 in NNE 8.0 mph 22.5 mph 48 % 0.0 in
13:17 21.1 °F 9.7 °F 1024.9 in West 1.6 mph 22.5 mph 48 % 0.0 in
13:22 21.4 °F 9.9 °F 1024.6 in NW 3.2 mph 14.5 mph 48 % 0.0 in
13:27 21.5 °F 9.4 °F 1024.6 in NNW 3.2 mph 14.5 mph 46 % 0.0 in
13:32 21.8 °F 9.7 °F 1024.6 in NNE 9.7 mph 16.1 mph 46 % 0.0 in
13:37 21.6 °F 9.5 °F 1024.6 in North 4.8 mph 16.1 mph 46 % 0.0 in
13:42 21.7 °F 9.6 °F 1024.6 in ESE 1.6 mph 16.1 mph 46 % 0.0 in
13:47 22.2 °F 9.4 °F 1024.6 in WSW 3.2 mph 14.5 mph 44 % 0.0 in
13:52 22.2 °F 9.7 °F 1024.6 in WNW 3.2 mph 14.5 mph 45 % 0.0 in
13:57 22.1 °F 8.9 °F 1024.3 in NW 3.2 mph 14.5 mph 43 % 0.0 in
14:02 22.0 °F 9.5 °F 1024.3 in Calm   12.9 mph 45 % 0.0 in
14:07 22.4 °F 9.9 °F 1024.3 in NE 4.8 mph 12.9 mph 45 % 0.0 in
14:12 22.6 °F 10.1 °F 1024.3 in NNW 6.4 mph 12.9 mph 45 % 0.0 in
14:17 22.3 °F 9.5 °F 1024.3 in North 8.0 mph 12.9 mph 44 % 0.0 in
14:22 22.1 °F 8.9 °F 1024.3 in WSW 3.2 mph 12.9 mph 43 % 0.0 in
14:27 22.1 °F 8.9 °F 1024.3 in NNW 1.6 mph 12.9 mph 43 % 0.0 in
14:32 22.3 °F 9.1 °F 1024.3 in North 3.2 mph 12.9 mph 43 % 0.0 in
14:37 22.4 °F 9.5 °F 1024.3 in Calm   12.9 mph 44 % 0.0 in
14:42 22.7 °F 9.1 °F 1024.3 in East 6.4 mph 12.9 mph 42 % 0.0 in
14:47 22.6 °F 9.4 °F 1024.3 in NE 8.0 mph 8.0 mph 43 % 0.0 in
14:52 22.7 °F 9.8 °F 1024.3 in NNE 1.6 mph 14.5 mph 44 % 0.0 in
14:57 22.6 °F 9.0 °F 1023.9 in NE 1.6 mph 14.5 mph 42 % 0.0 in
15:02 22.6 °F 9.4 °F 1023.9 in Calm   14.5 mph 43 % 0.0 in
15:07 22.9 °F 9.3 °F 1023.9 in NNE 6.4 mph 16.1 mph 42 % 0.0 in
15:12 22.9 °F 9.7 °F 1023.9 in NNW 6.4 mph 16.1 mph 43 % 0.0 in
15:17 22.9 °F 9.3 °F 1024.3 in WNW 3.2 mph 16.1 mph 42 % 0.0 in
15:22 22.9 °F 8.9 °F 1023.9 in East 3.2 mph 14.5 mph 41 % 0.0 in
15:32 22.8 °F 8.9 °F 1023.9 in NNW 4.8 mph 16.1 mph 41 % 0.0 in
15:37 22.8 °F 8.5 °F 1023.9 in West 4.8 mph 17.7 mph 40 % 0.0 in
15:42 23.0 °F 9.4 °F 1023.9 in NNW 4.8 mph 17.7 mph 42 % 0.0 in
15:47 23.4 °F 9.0 °F 1023.9 in WNW 4.8 mph 12.9 mph 40 % 0.0 in
15:52 23.5 °F 8.7 °F 1023.9 in Calm   12.9 mph 39 % 0.0 in
15:57 23.3 °F 9.3 °F 1023.6 in Calm   12.9 mph 41 % 0.0 in
16:02 23.7 °F 9.7 °F 1023.9 in North 9.7 mph 12.9 mph 41 % 0.0 in
16:07 23.4 °F 9.0 °F 1023.9 in East 1.6 mph 16.1 mph 40 % 0.0 in
16:12 23.1 °F 8.8 °F 1023.6 in NNW 1.6 mph 17.7 mph 40 % 0.0 in
16:17 23.1 °F 9.1 °F 1023.6 in ENE 8.0 mph 17.7 mph 41 % 0.0 in
16:22 23.0 °F 8.7 °F 1023.6 in NNE 8.0 mph 19.3 mph 40 % 0.0 in
16:32 23.1 °F 8.4 °F 1023.6 in NNW 1.6 mph 19.3 mph 39 % 0.0 in
16:37 23.1 °F 8.4 °F 1023.6 in NNE 4.8 mph 19.3 mph 39 % 0.0 in
16:42 23.2 °F 8.5 °F 1023.6 in Calm   19.3 mph 39 % 0.0 in
16:47 23.4 °F 9.4 °F 1023.6 in East 8.0 mph 17.7 mph 41 % 0.0 in
16:52 23.1 °F 8.8 °F 1023.6 in ENE 3.2 mph 14.5 mph 40 % 0.0 in
17:02 23.5 °F 8.7 °F 1023.6 in NNE 6.4 mph 17.7 mph 39 % 0.0 in
17:12 23.3 °F 8.6 °F 1023.6 in NW 1.6 mph 17.7 mph 39 % 0.0 in
17:17 23.4 °F 8.3 °F 1023.2 in NNE 4.8 mph 12.9 mph 38 % 0.0 in
17:22 23.6 °F 8.8 °F 1023.2 in Calm   12.9 mph 39 % 0.0 in
17:27 23.8 °F 8.6 °F 1023.2 in Calm   12.9 mph 38 % 0.0 in
17:32 23.8 °F 8.6 °F 1023.2 in NNE 4.8 mph 12.9 mph 38 % 0.0 in
17:37 23.7 °F 8.1 °F 1023.2 in NNE 11.3 mph 12.9 mph 37 % 0.0 in
17:42 23.4 °F 8.7 °F 1023.2 in NW 1.6 mph 19.3 mph 39 % 0.0 in
17:47 23.3 °F 8.6 °F 1023.2 in NE 8.0 mph 19.3 mph 39 % 0.0 in
17:52 23.3 °F 8.6 °F 1023.2 in ESE 9.7 mph 19.3 mph 39 % 0.0 in
17:57 23.3 °F 8.6 °F 1023.2 in East 9.7 mph 14.5 mph 39 % 0.0 in
18:02 23.3 °F 8.2 °F 1023.2 in NE 9.7 mph 14.5 mph 38 % 0.0 in
18:07 23.2 °F 8.5 °F 1023.2 in NNE 9.7 mph 14.5 mph 39 % 0.0 in
18:12 23.3 °F 8.6 °F 1023.2 in ENE 8.0 mph 19.3 mph 39 % 0.0 in
18:17 23.2 °F 8.5 °F 1023.2 in NNE 4.8 mph 19.3 mph 39 % 0.0 in
18:22 23.2 °F 8.5 °F 1023.2 in East 4.8 mph 19.3 mph 39 % 0.0 in
18:27 23.2 °F 8.5 °F 1023.2 in ENE 6.4 mph 16.1 mph 39 % 0.0 in
18:32 23.2 °F 8.5 °F 1023.2 in ENE 6.4 mph 17.7 mph 39 % 0.0 in
18:37 23.1 °F 8.4 °F 1023.2 in NNW 3.2 mph 19.3 mph 39 % 0.0 in
18:47 23.3 °F 8.6 °F 1023.2 in NE 8.0 mph 16.1 mph 39 % 0.0 in
18:52 23.3 °F 8.6 °F 1023.2 in ENE 8.0 mph 16.1 mph 39 % 0.0 in
18:57 23.1 °F 8.0 °F 1023.2 in North 3.2 mph 16.1 mph 38 % 0.0 in
19:02 23.1 °F 8.0 °F 1023.2 in ENE 3.2 mph 20.9 mph 38 % 0.0 in
19:07 23.0 °F 8.3 °F 1023.2 in NE 6.4 mph 20.9 mph 39 % 0.0 in
19:12 22.9 °F 8.6 °F 1023.2 in East 9.7 mph 17.7 mph 40 % 0.0 in
19:17 22.9 °F 8.9 °F 1023.2 in ENE 8.0 mph 17.7 mph 41 % 0.0 in
19:27 22.9 °F 8.6 °F 1023.2 in NE 3.2 mph 14.5 mph 40 % 0.0 in
19:32 22.9 °F 8.2 °F 1023.2 in NE 14.5 mph 14.5 mph 39 % 0.0 in
19:37 22.9 °F 8.2 °F 1023.2 in NE 11.3 mph 14.5 mph 39 % 0.0 in
19:42 22.8 °F 8.5 °F 1023.2 in NE 1.6 mph 14.5 mph 40 % 0.0 in
19:47 22.8 °F 8.1 °F 1023.2 in NE 8.0 mph 14.5 mph 39 % 0.0 in
19:52 22.7 °F 8.4 °F 1022.9 in NNE 6.4 mph 14.5 mph 40 % 0.0 in
19:57 22.7 °F 8.0 °F 1022.9 in NE 4.8 mph 12.9 mph 39 % 0.0 in
20:02 22.6 °F 8.3 °F 1022.9 in ENE 4.8 mph 12.9 mph 40 % 0.0 in
20:07 22.5 °F 8.6 °F 1022.9 in NE 3.2 mph 11.3 mph 41 % 0.0 in
20:12 22.4 °F 8.9 °F 1022.9 in ENE 4.8 mph 9.7 mph 42 % 0.0 in
20:22 22.0 °F 8.8 °F 1022.9 in ENE 4.8 mph 11.3 mph 43 % 0.0 in
20:27 21.9 °F 9.1 °F 1022.9 in NE 4.8 mph 11.3 mph 44 % 0.0 in
20:32 21.8 °F 9.0 °F 1022.9 in NE 4.8 mph 11.3 mph 44 % 0.0 in
20:37 21.8 °F 9.0 °F 1022.9 in NE 3.2 mph 8.0 mph 44 % 0.0 in
20:42 21.7 °F 8.9 °F 1022.9 in NE 8.0 mph 9.7 mph 44 % 0.0 in
20:47 21.5 °F 8.7 °F 1022.9 in NNE 3.2 mph 9.7 mph 44 % 0.0 in
20:52 21.3 °F 8.9 °F 1022.9 in NE 8.0 mph 11.3 mph 45 % 0.0 in
20:57 21.1 °F 9.0 °F 1022.9 in NE 6.4 mph 11.3 mph 46 % 0.0 in
21:02 20.9 °F 9.2 °F 1022.9 in NE 4.8 mph 11.3 mph 47 % 0.0 in
21:07 20.6 °F 9.2 °F 1022.9 in NNE 3.2 mph 8.0 mph 48 % 0.0 in
21:12 20.3 °F 9.2 °F 1022.9 in NE 3.2 mph 8.0 mph 49 % 0.0 in
21:17 19.9 °F 9.2 °F 1022.9 in NE 1.6 mph 8.0 mph 50 % 0.0 in
21:22 19.7 °F 9.3 °F 1022.9 in NE 3.2 mph 6.4 mph 51 % 0.0 in
21:27 19.4 °F 9.0 °F 1022.9 in NNE 3.2 mph 4.8 mph 51 % 0.0 in
21:32 19.2 °F 9.1 °F 1022.9 in NE 1.6 mph 6.4 mph 52 % 0.0 in
21:37 19.0 °F 8.9 °F 1022.9 in Calm   6.4 mph 52 % 0.0 in
21:42 18.8 °F 9.0 °F 1022.9 in North 1.6 mph 4.8 mph 53 % 0.0 in
21:47 18.7 °F 8.9 °F 1022.9 in North 1.6 mph 3.2 mph 53 % 0.0 in
21:52 18.4 °F 8.9 °F 1023.2 in NNW 1.6 mph 3.2 mph 54 % 0.0 in
21:57 18.2 °F 9.0 °F 1023.2 in NNW 3.2 mph 3.2 mph 55 % 0.0 in
22:02 18.1 °F 9.2 °F 1023.2 in Calm   4.8 mph 56 % 0.0 in
22:07 17.9 °F 9.0 °F 1022.9 in Calm   4.8 mph 56 % 0.0 in
22:12 17.7 °F 9.1 °F 1023.2 in Calm   4.8 mph 57 % 0.0 in
22:17 17.6 °F 9.0 °F 1022.9 in Calm   4.8 mph 57 % 0.0 in
22:22 17.4 °F 9.1 °F 1023.2 in Calm   4.8 mph 58 % 0.0 in
22:27 17.2 °F 9.1 °F 1022.9 in Calm   4.8 mph 59 % 0.0 in
22:32 17.1 °F 9.0 °F 1022.9 in Calm   3.2 mph 59 % 0.0 in
22:37 16.9 °F 9.1 °F 1022.9 in Calm   1.6 mph 60 % 0.0 in
22:42 16.7 °F 9.1 °F 1022.9 in Calm   1.6 mph 61 % 0.0 in
22:47 16.7 °F 9.1 °F 1022.9 in Calm   3.2 mph 61 % 0.0 in
22:52 16.6 °F 9.0 °F 1022.9 in Calm   3.2 mph 61 % 0.0 in
22:57 16.6 °F 9.0 °F 1022.9 in NW 1.6 mph 3.2 mph 61 % 0.0 in
23:02 16.6 °F 9.0 °F 1022.9 in Calm   4.8 mph 61 % 0.0 in
23:07 16.5 °F 9.0 °F 1022.9 in NNW 1.6 mph 4.8 mph 61 % 0.0 in
23:12 16.4 °F 9.1 °F 1022.9 in Calm   3.2 mph 62 % 0.0 in
23:17 16.3 °F 9.0 °F 1022.6 in Calm   3.2 mph 62 % 0.0 in
23:22 16.2 °F 9.1 °F 1022.6 in NNW 1.6 mph 3.2 mph 63 % 0.0 in
23:32 16.2 °F 8.9 °F 1022.6 in North 3.2 mph 3.2 mph 62 % 0.0 in
23:37 16.1 °F 8.8 °F 1022.6 in Calm   3.2 mph 62 % 0.0 in
23:42 16.1 °F 8.8 °F 1022.6 in Calm   3.2 mph 62 % 0.0 in
23:47 15.9 °F 8.6 °F 1022.6 in Calm   3.2 mph 62 % 0.0 in
23:52 15.8 °F 8.8 °F 1022.2 in Calm   3.2 mph 63 % 0.0 in
23:57 15.6 °F 8.8 °F 1022.6 in Calm   1.6 mph 64 % 0.0 in
Meteo18
Compliments of Weather Underground - 4 mb

Script developed by  Jim McMurry - jmcmurry@mwt.net Adapted for the template by  Wim van der Kuil - Leuven-Template.eu

You find our weather info also at:

European Weather Network

Weather Underground

Equipment we use:

Weather-station
Davis Vue

Weather-program
Meteobridge

Weather-server
Raspberry PI 2 B+

Provider
1 and 1

Davis Vue

Meteobridge

Raspberry PI 2 B+

1 and 1